Météo Nord-Pas-de-Calais   La météo au plus près de chez vous

Station météorologique

Observations météo à Tregunc (29293)

29293001 25 m Dernier relevé à 12:12
20.5°C
Humidité 71 % Vent 13.3 km/h

Journée consultée

Mercredi 2 Septembre 2026

Synthèse de la journée

Périodes de référence en UTC

Température maximale

20.7°C

à 12:00

06h 06h

Température minimale

11.6°C

à 07:36

18h 18h

Rafale maximale

26 km/h

à 12:12

00h 00h

Précipitations

0 mm

Cumul quotidien

06h 06h

Graphiques de la journée

Heure locale Réduire

Données détaillées

Relevés météo

Pas de 6 minutes Afficher les relevés infra-horaires
Relevés météo détaillés à Tregunc pour le Mercredi 2 Septembre 2026
Heure Température °C Point de rosée °C Humidité % Vent moyen (raf.), km/h Précipitations mm
12:12 20.5 °C 14.4 °C 68 % 16 km/h (26 km/h) 0 mm0 mm
12:06 20.5 °C 14.4 °C 68 % 15 km/h (23 km/h) 0 mm0 mm
12:00 20.4 °C 14.3 °C 68 % 15 km/h (22 km/h) 0 mm0 mm
11:54 20.6 °C 14.7 °C 69 % 14 km/h (23 km/h) 0 mm0 mm
11:48 20.4 °C 14.3 °C 68 % 14 km/h (22 km/h) 0 mm0 mm
11:42 20.5 °C 14.2 °C 67 % 14 km/h (22 km/h) 0 mm0 mm
11:36 20.1 °C 14.2 °C 69 % 14 km/h (21 km/h) 0 mm0 mm
11:30 20.1 °C 14.2 °C 69 % 15 km/h (21 km/h) 0 mm0 mm
11:24 20.1 °C 14.5 °C 70 % 14 km/h (22 km/h) 0 mm0 mm
11:18 20.2 °C 14.1 °C 68 % 13 km/h (20 km/h) 0 mm0 mm
11:12 20.3 °C 14.9 °C 71 % 13 km/h (21 km/h) 0 mm0 mm
11:06 20.2 °C 14.6 °C 70 % 13 km/h (21 km/h) 0 mm0 mm
11:00 20 °C 14.6 °C 71 % 14 km/h (22 km/h) 0 mm0 mm
10:54 19.6 °C 14.2 °C 71 % 13 km/h (20 km/h) 0 mm0 mm
10:48 19.8 °C 14.4 °C 71 % 12 km/h (18 km/h) 0 mm0 mm
10:42 19.4 °C 14.4 °C 73 % 12 km/h (18 km/h) 0 mm0 mm
10:36 19.1 °C 14.1 °C 73 % 13 km/h (18 km/h) 0 mm0 mm
10:30 18.9 °C 14.2 °C 74 % 12 km/h (16 km/h) 0 mm0 mm
10:24 18.9 °C 14.6 °C 76 % 9 km/h (16 km/h) 0 mm0 mm
10:18 18.8 °C 14.9 °C 78 % 8 km/h (14 km/h) 0 mm0 mm
10:12 18.5 °C 14.6 °C 78 % 8 km/h (14 km/h) 0 mm0 mm
10:06 18.3 °C 15 °C 81 % 5 km/h (10 km/h) 0 mm0 mm
10:00 18.2 °C 14.9 °C 81 % 4 km/h (9 km/h) 0 mm0 mm
09:54 18 °C 15.1 °C 83 % 5 km/h (7 km/h) 0 mm0 mm
09:48 17.7 °C 14.8 °C 83 % 4 km/h (7 km/h) 0 mm0 mm
09:42 17.5 °C 14.9 °C 85 % 4 km/h (8 km/h) 0 mm0 mm
09:36 17 °C 14.5 °C 85 % 5 km/h (8 km/h) 0 mm0 mm
09:30 16.7 °C 14.3 °C 86 % 5 km/h (6 km/h) 0 mm0 mm
09:24 16.5 °C 14.9 °C 90 % 5 km/h (6 km/h) 0 mm0 mm
09:18 16 °C 14.4 °C 90 % 5 km/h (8 km/h) 0 mm0 mm
09:12 15.5 °C 14.2 °C 92 % 5 km/h (8 km/h) 0 mm0 mm
09:06 15.1 °C 14.3 °C 95 % 5 km/h (6 km/h) 0 mm0 mm
09:00 14.6 °C 14 °C 96 % 4 km/h (6 km/h) 0 mm0 mm
08:54 14.2 °C 13.6 °C 96 % 4 km/h (6 km/h) 0 mm0 mm
08:48 14.2 °C 13.7 °C 97 % 4 km/h (6 km/h) 0 mm0 mm
08:42 13.9 °C 13.6 °C 98 % 4 km/h (5 km/h) 0 mm0 mm
08:36 13.5 °C 13.2 °C 98 % 3 km/h (5 km/h) 0 mm0 mm
08:30 13.2 °C 13 °C 99 % 4 km/h (5 km/h) 0 mm0 mm
08:24 12.6 °C 12.3 °C 98 % 4 km/h (6 km/h) 0 mm0 mm
08:18 12.3 °C 12 °C 98 % 4 km/h (6 km/h) 0 mm0 mm
08:12 12.1 °C 11.8 °C 98 % 4 km/h (6 km/h) 0 mm0 mm
08:06 11.8 °C 11.5 °C 98 % 3 km/h (5 km/h) 0 mm0 mm
08:00 11.6 °C 11.1 °C 97 % 3 km/h (5 km/h) 0 mm0 mm
07:54 11.6 °C 11.1 °C 97 % 4 km/h (6 km/h) 0 mm0 mm
07:48 11.7 °C 11.2 °C 97 % 5 km/h (6 km/h) 0 mm0 mm
07:42 11.6 °C 11.1 °C 97 % 4 km/h (6 km/h) 0 mm0 mm
07:36 11.6 °C 11.1 °C 97 % 4 km/h (6 km/h) 0 mm0 mm
07:30 11.7 °C 11.2 °C 97 % 5 km/h (6 km/h) 0 mm0 mm
07:24 11.8 °C 11.3 °C 97 % 4 km/h (6 km/h) 0 mm0 mm
07:18 11.8 °C 11.3 °C 97 % 4 km/h (5 km/h) 0 mm0 mm
07:12 11.7 °C 11.2 °C 97 % 4 km/h (5 km/h) 0 mm0 mm
07:06 11.7 °C 11.2 °C 97 % 3 km/h (5 km/h) 0 mm0 mm
07:00 11.8 °C 11.3 °C 97 % 2 km/h (4 km/h) 0 mm0 mm
06:54 11.7 °C 11.2 °C 97 % 3 km/h (6 km/h) 0 mm0 mm
06:48 11.8 °C 11.3 °C 97 % 4 km/h (6 km/h) 0 mm0 mm
06:42 11.8 °C 11.2 °C 96 % 5 km/h (6 km/h) 0 mm0 mm
06:36 12.1 °C 11.6 °C 97 % 5 km/h (6 km/h) 0 mm0 mm
06:30 11.8 °C 11.2 °C 96 % 4 km/h (6 km/h) 0 mm0 mm
06:24 12.2 °C 11.6 °C 96 % 3 km/h (5 km/h) 0 mm0 mm
06:18 12.3 °C 11.8 °C 97 % 3 km/h (4 km/h) 0 mm0 mm
06:12 12.2 °C 11.7 °C 97 % 3 km/h (4 km/h) 0 mm0 mm
06:06 12 °C 11.4 °C 96 % 3 km/h (4 km/h) 0 mm0 mm
06:00 12.1 °C 11.5 °C 96 % 3 km/h (4 km/h) 0 mm0 mm
05:54 12.2 °C 11.6 °C 96 % 3 km/h (5 km/h) 0 mm0 mm
05:48 12.4 °C 11.8 °C 96 % 5 km/h (7 km/h) 0 mm0 mm
05:42 12.4 °C 11.8 °C 96 % 6 km/h (7 km/h) 0 mm0 mm
05:36 12.4 °C 11.6 °C 95 % 4 km/h (6 km/h) 0 mm0 mm
05:30 12.7 °C 11.9 °C 95 % 3 km/h (4 km/h) 0 mm0 mm
05:24 12.8 °C 12.2 °C 96 % 3 km/h (4 km/h) 0 mm0 mm
05:18 12.8 °C 12 °C 95 % 4 km/h (7 km/h) 0 mm0 mm
05:12 13 °C 12.2 °C 95 % 6 km/h (7 km/h) 0 mm0 mm
05:06 13 °C 12.2 °C 95 % 4 km/h (7 km/h) 0 mm0 mm
05:00 13.1 °C 12.3 °C 95 % 2 km/h (5 km/h) 0 mm0 mm
04:54 13.2 °C 12.3 °C 94 % 0 km/h (4 km/h) 0 mm0 mm
04:48 13.2 °C 12.3 °C 94 % 3 km/h (6 km/h) 0 mm0 mm
04:42 13.4 °C 12.5 °C 94 % 4 km/h (7 km/h) 0 mm0 mm
04:36 13.4 °C 12.5 °C 94 % 4 km/h (7 km/h) 0 mm0 mm
04:30 13.4 °C 12.5 °C 94 % 4 km/h (6 km/h) 0 mm0 mm
04:24 13.4 °C 12.5 °C 94 % 3 km/h (6 km/h) 0 mm0 mm
04:18 13.5 °C 12.6 °C 94 % 3 km/h (5 km/h) 0 mm0 mm
04:12 13.6 °C 12.7 °C 94 % 3 km/h (5 km/h) 0 mm0 mm
04:06 13.7 °C 12.8 °C 94 % 3 km/h (4 km/h) 0 mm0 mm
04:00 13.8 °C 12.9 °C 94 % 3 km/h (4 km/h) 0 mm0 mm
03:54 13.8 °C 12.9 °C 94 % 3 km/h (4 km/h) 0 mm0 mm
03:48 13.8 °C 12.9 °C 94 % 3 km/h (4 km/h) 0 mm0 mm
03:42 13.7 °C 12.8 °C 94 % 3 km/h (5 km/h) 0 mm0 mm
03:36 13.8 °C 12.9 °C 94 % 4 km/h (5 km/h) 0 mm0 mm
03:30 13.9 °C 12.9 °C 94 % 4 km/h (6 km/h) 0 mm0 mm
03:24 13.8 °C 12.9 °C 94 % 4 km/h (6 km/h) 0 mm0 mm
03:18 13.8 °C 12.9 °C 94 % 2 km/h (4 km/h) 0 mm0 mm
03:12 13.7 °C 12.8 °C 94 % 0 km/h (2 km/h) 0 mm0 mm
03:06 13.8 °C 12.9 °C 94 % 0 km/h (0 km/h) 0 mm0 mm
03:00 13.7 °C 12.6 °C 93 % 0 km/h (0 km/h) 0 mm0 mm
02:54 13.9 °C 12.8 °C 93 % 0 km/h (0 km/h) 0 mm0 mm
02:48 13.9 °C 12.8 °C 93 % 0 km/h (3 km/h) 0 mm0 mm
02:42 14 °C 12.7 °C 92 % 0 km/h (3 km/h) 0 mm0 mm
02:36 14.1 °C 13 °C 93 % 0 km/h (3 km/h) 0 mm0 mm
02:30 14.1 °C 13 °C 93 % 0 km/h (3 km/h) 0 mm0 mm
02:24 14.1 °C 12.8 °C 92 % 0 km/h (4 km/h) 0 mm0 mm
02:18 14 °C 12.7 °C 92 % 0 km/h (4 km/h) 0 mm0 mm
02:12 14.1 °C 12.8 °C 92 % 0 km/h (0 km/h) 0 mm0 mm
02:06 14.1 °C 12.8 °C 92 % 0 km/h (2 km/h) 0 mm0 mm
02:00 14.2 °C 13.1 °C 93 % 0 km/h (2 km/h) 0 mm0 mm
01:54 14 °C 12.7 °C 92 % 2 km/h (3 km/h) 0 mm0 mm
01:48 13.9 °C 12.6 °C 92 % 0 km/h (3 km/h) 0 mm0 mm
01:42 14 °C 12.6 °C 91 % 0 km/h (3 km/h) 0 mm0 mm
01:36 14.1 °C 12.5 °C 90 % 2 km/h (4 km/h) 0 mm0 mm
01:30 14.3 °C 12.5 °C 89 % 3 km/h (4 km/h) 0 mm0 mm
01:24 14.4 °C 12.4 °C 88 % 0 km/h (3 km/h) 0 mm0 mm
01:18 14.5 °C 12.5 °C 88 % 0 km/h (3 km/h) 0 mm0 mm
01:12 14.7 °C 12.7 °C 88 % 2 km/h (3 km/h) 0 mm0 mm
01:06 14.9 °C 12.6 °C 86 % 3 km/h (4 km/h) 0 mm0 mm
01:00 15.1 °C 12.8 °C 86 % 3 km/h (4 km/h) 0 mm0 mm
00:54 15.2 °C 12.9 °C 86 % 4 km/h (6 km/h) 0 mm0 mm
00:48 15.3 °C 13 °C 86 % 4 km/h (6 km/h) 0 mm0 mm
00:42 15.2 °C 13 °C 87 % 5 km/h (6 km/h) 0 mm0 mm
00:36 15 °C 12.9 °C 87 % 4 km/h (6 km/h) 0 mm0 mm
00:30 14.8 °C 12.5 °C 86 % 3 km/h (5 km/h) 0 mm0 mm
00:24 14.9 °C 12.6 °C 86 % 3 km/h (4 km/h) 0 mm0 mm
00:18 15 °C 12.5 °C 85 % 3 km/h (4 km/h) 0 mm0 mm
00:12 15.2 °C 12.5 °C 84 % 2 km/h (3 km/h) 0 mm0 mm
00:06 15.3 °C 12.4 °C 83 % 2 km/h (3 km/h) 0 mm0 mm
00:00 15.5 °C 12.4 °C 82 % 2 km/h (3 km/h) 0 mm0 mm

Données via Météo-France

Relevés météo à Tregunc

Cette page rassemble les observations de la station de Tregunc : température, humidité, vent, précipitations et pression atmosphérique. Les graphiques facilitent le suivi de la journée, tandis que le tableau donne accès aux mesures horaires et infra-horaires disponibles.

Pour replacer ces mesures dans leur contexte, consultez la climatologie de Tregunc ainsi que ses normales et records. Retrouvez aussi la carte des observations météo en temps réel.